User: anonymous   Login
Location: Betra
(48.4113°N, 8.6634°E)
Time: 14:16:47
(UTC+00:00)
Language:

Cosmos 1953 - Orbit

View from above orbital plane
View from above orbital plane
View from above satellite
View from above satellite

Ground track
Ground track

The orbit data is extracted from the following two-line orbital elements,

1 19210U 88050A   24198.63543595  .00009790  00000-0  51271-3 0  9992
2 19210  82.5131  37.4464 0015924  71.0685 289.2272 15.15575618946321
Epoch (UTC): 16 July 2024 15:15:01
Eccentricity: 0.0015924
inclination: 82.5131°
perigee height: 508 km
apogee height: 530 km
right ascension of ascending node: 37.4464°
argument of perigee: 71.0685°
revolutions per day: 15.15575618
mean anomaly at epoch: 289.2272°
orbit number at epoch: 94632

The dashed part of the orbit path shows where the satellite is in the earth's shadow,  

DLR